Location: Unspecified
(43.9500°N, 64.7900°W)
Time: 20:14:41
(UTC-04:00)

ISS - Visible Passes

Search period start: 13 December 2018 00:00
Search period end: 23 December 2018 00:00
Orbit: 401 x 408 km, 51.6° (Epoch: 14 December)

Date Brightness Start Highest point End Pass type
(mag) Time Alt. Az. Time Alt. Az. Time Alt. Az.
13 Dec -2.2 17:43:50 10° WNW 17:46:53 37° SW 17:49:55 10° SSE visible
15 Dec -0.7 17:36:35 10° W 17:38:45 17° SW 17:40:56 10° S visible
22 Dec -0.5 06:40:58 10° SSE 06:42:46 14° SE 06:44:33 10° E visible
